Location: Newark
(49.5647°N, 8.2922°E)
Time: 13:29:15
(UTC+00:00)

Transit 2A - Pass Details

Date: 19 February 2020
Orbit: 597 x 961 km, 66.7° (Epoch: 30 March)

Event Time Altitude Azimuth Distance (km) Brightness Sun altitude
Rises 12:13:51 0° 167° (SSE) 2,834 10.0 28.6°
Reaches altitude 10° 12:16:49 10° 145° (SE) 1,929 8.9 28.6°
Maximum altitude 12:19:24 16° 108° (ESE) 1,596 7.9 28.5°
Drops below altitude 10° 12:22:01 10° 71° (ENE) 1,959 7.9 28.4°
Sets 12:25:04 0° 49° (NE) 2,904 8.6 28.3°
